Location: Limoges
(45.8354°N, 1.2645°E)
Time: 19:17:27
(UTC+02:00)

Courier 1B Rocket - Pass Details

Date: 25 February 2024
Orbit: 920 x 1201 km, 28.2° (Epoch: 20 April)

Event Time Altitude Azimuth Distance (km) Brightness Sun altitude
Rises 03:45:50 0° 217° (SW) 3,579 - -40.3°
Reaches altitude 10° 03:50:30 10° 186° (S) 2,608 - -39.7°
Maximum altitude 03:52:32 12° 167° (SSE) 2,485 - -39.4°
Drops below altitude 10° 03:54:33 10° 147° (SSE) 2,602 - -39.1°
Exits shadow 03:56:34 - 131° (SE) 2,928 7.6 -38.8°
Sets 03:59:11 0° 117° (ESE) 3,557 8.3 -38.4°
